Date,TemperatureHighF,TemperatureAvgF,TemperatureLowF,DewpointHighF,DewpointAvgF,DewpointLowF,HumidityHigh,HumidityAvg,HumidityLow,PressureMaxIn,PressureMinIn,WindSpeedMaxMPH,WindSpeedAvgMPH,GustSpeedMaxMPH,PrecipitationSumIn
2013-2-1,45.0,35.1,8.0,34.9,29.1,8.0,100,79,59,30.22,29.92,29,6,29,0.00
2013-2-2,47.0,37.2,26.0,30.4,22.9,18.5,97,58,33,30.27,30.03,46,11,47,0.03
2013-2-3,57.0,39.6,25.0,27.4,21.2,12.7,88,52,19,30.26,29.71,32,7,32,0.00
2013-2-4,51.0,36.8,25.0,31.8,23.6,19.5,87,61,35,30.01,29.73,32,4,32,0.00
2013-2-5,49.0,40.6,32.0,30.3,26.7,23.9,81,58,42,30.03,29.82,23,8,23,0.00
2013-2-6,52.0,40.0,28.0,29.0,25.0,21.9,91,56,38,30.12,29.75,36,8,36,0.00
2013-2-7,51.0,37.1,26.0,24.6,20.0,16.4,77,52,27,30.16,29.99,19,6,19,0.00
2013-2-8,49.0,34.9,25.0,24.8,21.9,16.5,94,61,29,30.05,29.81,20,11,20,0.00
2013-2-9,39.0,28.7,21.0,29.8,22.6,17.9,100,79,51,29.95,29.71,41,16,41,0.00
2013-2-10,31.0,25.1,14.0,27.5,21.3,10.1,100,86,62,30.16,29.69,56,25,56,0.00
2013-2-11,33.0,19.9,9.0,21.4,12.7,5.9,97,74,45,30.21,30.00,15,3,15,0.00
2013-2-12,49.0,31.4,16.0,23.2,15.9,5.3,74,53,32,30.09,29.87,22,4,40,0.00
2013-2-13,49.0,37.5,29.0,30.3,23.7,19.0,93,59,35,30.03,29.73,41,12,41,0.00
2013-2-14,33.0,24.8,9.0,27.2,16.3,8.3,99,72,42,30.45,30.01,50,15,50,0.00
2013-2-15,32.0,22.0,12.0,17.6,11.7,6.8,100,67,37,30.42,30.16,31,7,31,0.00
2013-2-16,56.0,40.1,23.0,27.8,23.5,13.0,79,54,31,30.16,29.83,26,5,26,0.00
2013-2-17,57.0,38.5,27.0,29.8,22.8,16.4,82,56,21,29.89,29.45,45,11,45,0.00
2013-2-18,34.0,28.5,23.0,25.5,18.5,14.0,86,66,51,30.14,29.82,43,21,46,0.00
2013-2-19,23.0,15.0,7.0,16.5,11.6,7.0,100,87,68,30.34,30.15,15,6,15,0.00
2013-2-20,31.0,22.5,13.0,21.8,16.1,10.6,99,77,49,30.15,29.89,27,17,31,0.00
2013-2-21,27.0,19.5,14.0,25.3,19.3,14.0,100,99,87,30.09,30.02,16,6,18,0.02
2013-2-22,37.0,22.7,13.0,29.1,19.4,13.0,100,88,61,30.09,29.87,16,3,24,0.02
2013-2-23,45.0,31.7,17.0,30.3,16.3,10.5,88,57,27,29.90,29.63,16,3,16,0.00
2013-2-24,34.0,30.2,22.0,31.5,25.2,16.8,97,82,56,30.20,29.87,35,13,35,0.00
2013-2-25,48.0,29.9,14.0,20.9,13.8,0.3,95,57,15,30.21,29.80,32,8,32,0.00
2013-2-26,38.0,24.4,18.0,24.6,14.8,9.2,78,67,51,29.98,29.85,30,3,30,0.00
2013-2-27,41.0,29.0,17.0,24.6,20.2,17.0,100,73,42,30.35,30.12,34,12,35,0.00
2013-2-28,41.0,27.1,13.0,28.8,21.7,12.0,100,82,48,30.35,30.13,15,2,15,0.00